Regional Weather Roundup
Issued by NWS

Home | Current Version | Previous Version | Text Only | Print | Product List | Glossary On
Versions: 1 2 3 4 5 6 7 8 9 10 11 12 13 14 15 16 17 18 19 20 21 22 23 24 25 26 27 28 29 30 31 32 33 34 35 36 37 38 39 40 41 42 43 44 45 46 47 48 49 50
964
ASUS43 KDTX 231001
RWRMI
MICHIGAN HOURLY REGIONAL WEATHER ROUNDUP
NATIONAL WEATHER SERVICE DETROIT/PONTIAC MI
600 AM EDT WED AUG 23 2017

NOTE: "FAIR" INDICATES FEW OR NO CLOUDS BELOW 12,000 FEET WITH NO
SIGNIFICANT WEATHER AND/OR OBSTRUCTION TO VISIBILITY.

MIZ047>049-052>055-059>063-066>070-074>076-081>083-231100-
SOUTHEAST LOWER MICHIGAN

CITY           SKY/WX    TMP DP  RH WIND       PRES   REMARKS
ADRIAN         CLEAR     56  52  86 W7        29.96S
ALMA           CLEAR     55  52  90 W12       29.92F
ANN ARBOR      PTCLDY    52  52 100 SW5       29.93S
BAD AXE        CLEAR     55  53  93 W3        29.88S
CARO           CLEAR     53  50  91 SW3       29.89S
DETROIT CITY   CLEAR     59  53  80 W5        29.92S
DETROIT        PTCLDY    58  54  86 SW5       29.93S
FLINT          CLEAR     55  52  89 SW6       29.92S
GROSSE ILE     PTCLDY    58  54  84 W6        29.92S
HILLSDALE      CLEAR     55  52  88 W6        29.96S
HOWELL         CLEAR     55  52  90 W3        29.93S

CITY           SKY/WX    TMP DP  RH WIND       PRES   REMARKS
JACKSON        CLEAR     56  52  86 SW3       29.95S
LAMBERTVILLE   CLEAR     55  53  92 CALM      29.94S
LANSING        CLEAR     60  52  74 W8        29.94S
LAPEER         FAIR      57  52  84 W6        29.91S
MASON          CLEAR     55  53  90 CALM      29.94S
MONROE         PTCLDY    53  52  95 W3        29.93S
MT. CLEMENS    CLEAR     58  54  84 SW7       29.89S
PONTIAC        CLEAR     58  53  84 W12       29.91S
PORT HOPE        N/A     57  53  86 SW5       29.84S
PORT HURON     CLEAR     52  50  93 CALM      29.90S FOG
TRI CITIES     CLEAR     56  54  93 W9        29.91S
MIDLAND        FAIR      56  52  88 W3        29.89S
TROY           CLEAR     60  53  77 SW3       29.93S
SAGINAW HB     CLEAR     55  52  88 SW8       29.89S
$$
MIZ043>046-050>051-056>058-064>065-071>073-077>080-231100-
SOUTHWEST LOWER MICHIGAN

CITY           SKY/WX    TMP DP  RH WIND       PRES   REMARKS
BATTLE CREEK   CLEAR     57  53  86 W7        29.96S
BENTON HARBOR  CLEAR     67  52  58 VRB7      29.97F
BIG RAPIDS     CLEAR     56  50  82 W7        29.92S
COLDWATER      CLEAR     55  55  98 SW6       29.97S
FREMONT        FAIR      57  54  90 W5        29.94R
HOLLAND        PTCLDY    67  51  56 NW9G18    29.96S
GRAND RAPIDS   CLEAR     58  54  86 W8        29.94S
IONIA          FAIR      56  52  87 SW6       29.93S
KALAMAZOO      CLEAR     59  52  77 W6        29.97S
LUDINGTON      MOCLDY    62  53  73 NW7       29.92S
MARSHALL       CLEAR     55  54  97 W3        29.96S
MOUNT PLEASANT CLEAR     57  53  85 SW5       29.90S
MUSKEGON       PTCLDY    66  53  63 NW7       29.94S
SOUTH HAVEN    CLEAR     68  50  53 NW6       29.97S
$$
MIZ016>042-231100-
NORTHERN LOWER MICHIGAN

CITY           SKY/WX    TMP DP  RH WIND       PRES   REMARKS
ALPENA         CLEAR     56  53  90 W7        29.83S
BEAVER ISLAND  MOCLDY    59  53  81 NW6G16    29.87S
BELLAIRE       CLEAR     60  53  76 NW3       29.88R
CADILLAC       CLEAR     55  51  86 W5        29.91R
CHARLEVOIX     MOCLDY    60  53  78 NW13G20   29.90R
FRANKFORT      PTCLDY    62  56  81 NW8       29.90S
GAYLORD        CLEAR     54  51  90 W7        29.87R
GRAYLING       CLEAR     52  49  91 W6        29.88S
HARBOR SPRINGS CLEAR     56  53  87 CALM      29.86R
HOUGHTON LAKE  CLEAR     58  52  80 W12       29.89S
MANISTEE       MOCLDY    62  55  77 NW13      29.91S
OSCODA         CLEAR     55  52  92 SW9       29.85S
PELLSTON       PTCLDY    58  53  84 NW10      29.85R
ROGERS CITY    PTCLDY    55  52  89 W5        29.84R
TRAVERSE CITY  CLEAR     60  54  80 W8        29.87S
$$
MIZ007>008-015-231100-
EASTERN UPPER MICHIGAN

CITY           SKY/WX    TMP DP  RH WIND       PRES   REMARKS
KINROSS        MOCLDY    53  52  96 W8        29.82R
MACKINAC ISLAN CLEAR     56  53  91 W13G18    29.84R
NEWBERRY       PTCLDY    52  51  97 W7        29.84S
S. S. MARIE    CLEAR     58  50  75 NW12G21   29.79R
MUNISING         N/A     59  56  89 NW15      29.89R
$$
MIZ004>006-011>014-085-231100-
CENTRAL UPPER MICHIGAN

CITY           SKY/WX    TMP DP  RH WIND       PRES   REMARKS
MANISTIQUE     CLEAR     50  45  81 W5        29.87R
ESCANABA       CLEAR     52  51  97 W5        29.91R
MENOMINEE      CLEAR     54  52  93 W5        29.95R
SAWYER-GWINN   CLEAR     51  49  93 CALM      29.92R
$$
MIZ001>003-009>011-084-231100-
WESTERN UPPER MICHIGAN

CITY           SKY/WX    TMP DP  RH WIND       PRES   REMARKS
IRON MOUNTAIN  CLEAR     53  50  89 W7        29.94R
HOUGHTON       PTCLDY    53  48  83 NW8       29.93R
COPPER HARBOR    N/A     57  49  74 N16       29.91R
IRONWOOD       CLOUDY    55  53  93 W3        30.00R
$$

ABBREVIATIONS USED IN REMARKS
   TC - TEMPERATURE IN CELSIUS
  WCI - WIND CHILL INDEX
   HX - HEAT INDEX
  VSB - VISIBILITY





USA.gov is the U.S. government's official web portal to all federal, state and local government web resources and services.